User: anonymous   Login
Location: Bakov nad Jizerou
(50.4784°N, 14.9394°E)
Time: 20:06:15
(UTC+00:00)
Language:

YAOGAN 1 DEB - Orbit

View from above orbital plane
View from above orbital plane
View from above satellite
View from above satellite

Ground track
Ground track

The orbit data is extracted from the following two-line orbital elements,

1 36365U 06015J   22022.55592271  .00001562  00000-0  17474-3 0  9999
2 36365  97.9817  53.8397 0022916 149.5883 210.6668 14.88216807647572
Epoch (UTC): 22 January 2022 13:20:31
Eccentricity: 0.0022916
inclination: 97.9817°
perigee height: 587 km
apogee height: 619 km
right ascension of ascending node: 53.8397°
argument of perigee: 149.5883°
revolutions per day: 14.88216807
mean anomaly at epoch: 210.6668°
orbit number at epoch: 64757

The dashed part of the orbit path shows where the satellite is in the earth's shadow,  

DLR